,,Stat5,,Stat1,,Stat2,,Stat3,,Stat4,,Wind1,,Wind1,
time,status,PA1M_AVG,status,PR1M_SUM,status,RH1M_AVG,status,SR1M_AVG,status,TA1M_AVG,status,W1dAve1m,status,W1sAve1m,
2000-12-21, 00:00:00,VALID,917.084,VALID,0,VALID,99.2017,VALID,0,VALID,19.4325,VALID,93,VALID,0.865184,
2000-12-21, 00:01:00,VALID,917.072,VALID,0,VALID,99.1953,VALID,0,VALID,19.4385,VALID,97,VALID,0.731297,
2000-12-21, 00:02:00,VALID,917.06,VALID,0,VALID,99.1941,VALID,0.0169808,VALID,19.4653,VALID,112,VALID,0.558712,
2000-12-21, 00:03:00,VALID,917.05,VALID,0,VALID,99.1941,VALID,0.0509425,VALID,19.4517,VALID,96,VALID,0.384332,
2000-12-21, 00:04:00,VALID,917.049,VALID,0,VALID,99.1979,VALID,0,VALID,19.4614,VALID,100,VALID,0.241039,
2000-12-21, 00:05:00,VALID,917.047,VALID,0,VALID,99.1953,VALID,-0.0169808,VALID,19.488,VALID,100,VALID,0.243032,
2000-12-21, 00:06:00,VALID,917.037,VALID,0,VALID,99.1915,VALID,0.0169808,VALID,19.4877,VALID,102,VALID,0.210526,
2000-12-21, 00:07:00,VALID,917.022,VALID,0,VALID,99.1877,VALID,0.0169808,VALID,19.4743,VALID,104,VALID,0.286318,
2000-12-21, 00:08:00,VALID,917.023,VALID,0,VALID,99.1966,VALID,0.0169808,VALID,19.4808,VALID,101,VALID,0.620683,
2000-12-21, 00:09:00,VALID,917.005,VALID,0,VALID,99.203,VALID,0,VALID,19.5036,VALID,100,VALID,0.940402,
2000-12-21, 00:10:00,VALID,916.991,VALID,0,VALID,99.1953,VALID,0.0339617,VALID,19.4939,VALID,100,VALID,0.674753,
2000-12-21, 00:11:00,VALID,916.975,VALID,0,VALID,99.2157,VALID,0.0339617,VALID,19.5031,VALID,106,VALID,0.747179,
2000-12-21, 00:12:00,VALID,916.978,VALID,0,VALID,99.1941,VALID,0.0339617,VALID,19.4964,VALID,111,VALID,0.463405,
2000-12-21, 00:13:00,VALID,916.947,VALID,0,VALID,99.1788,VALID,0.0169808,VALID,19.4674,VALID,98,VALID,1.21154,
2000-12-21, 00:14:00,VALID,916.941,VALID,0,VALID,99.1813,VALID,-0.0169808,VALID,19.4783,VALID,104,VALID,1.2125,
2000-12-21, 00:15:00,VALID,916.931,VALID,0,VALID,99.1877,VALID,0,VALID,19.4775,VALID,97,VALID,0.562922,
2000-12-21, 00:16:00,VALID,916.923,VALID,0,VALID,99.1915,VALID,0,VALID,19.4678,VALID,84,VALID,0.0542969,
2000-12-21, 00:17:00,VALID,916.92,VALID,0,VALID,99.1763,VALID,0,VALID,19.4748,VALID,84,VALID,0,
2000-12-21, 00:18:00,VALID,916.913,VALID,0,VALID,99.1699,VALID,0,VALID,19.4517,VALID,97,VALID,0.0318668,
2000-12-21, 00:19:00,VALID,916.906,VALID,0,VALID,99.1763,VALID,0.0169808,VALID,19.4489,VALID,109,VALID,0.902444,
2000-12-21, 00:20:00,VALID,916.882,VALID,0,VALID,99.203,VALID,0,VALID,19.4584,VALID,95,VALID,0.649671,
2000-12-21, 00:21:00,VALID,916.864,VALID,0,VALID,99.2169,VALID,0.0509425,VALID,19.4743,VALID,103,VALID,0.908454,
2000-12-21, 00:22:00,VALID,916.85,VALID,0,VALID,99.2119,VALID,0.0679233,VALID,19.4837,VALID,95,VALID,0.964258,
2000-12-21, 00:23:00,VALID,916.842,VALID,0,VALID,99.2068,VALID,0.0849042,VALID,19.4644,VALID,107,VALID,0.421664,
2000-12-21, 00:24:00,VALID,916.827,VALID,0,VALID,99.1953,VALID,0.0339617,VALID,19.4417,VALID,105,VALID,0.0302734,
2000-12-21, 00:25:00,VALID,916.812,VALID,0,VALID,99.1788,VALID,0.0849042,VALID,19.4383,VALID,105,VALID,0.623998,
2000-12-21, 00:26:00,VALID,916.806,VALID,0,VALID,99.1991,VALID,0.0849042,VALID,19.4514,VALID,103,VALID,0.710321,
2000-12-21, 00:27:00,VALID,916.794,VALID,0,VALID,99.2195,VALID,0.0849042,VALID,19.4539,VALID,103,VALID,0.983774,
2000-12-21, 00:28:00,VALID,916.768,VALID,0,VALID,99.2169,VALID,0.0509425,VALID,19.477,VALID,104,VALID,0.834293,
2000-12-21, 00:29:00,VALID,916.749,VALID,0,VALID,99.2322,VALID,0.0679233,VALID,19.49,VALID,104,VALID,0.367788,
2000-12-21, 00:30:00,VALID,916.744,VALID,0,VALID,99.2106,VALID,0.0339617,VALID,19.4969,VALID,91,VALID,0.157227,
2000-12-21, 00:31:00,VALID,916.748,VALID,0,VALID,99.203,VALID,0.0509425,VALID,19.4581,VALID,39,VALID,0.0652449,
2000-12-21, 00:32:00,VALID,916.734,VALID,0,VALID,99.189,VALID,0,VALID,19.445,VALID,63,VALID,0.191602,
2000-12-21, 00:33:00,VALID,916.708,VALID,0,VALID,99.1864,VALID,0.0679233,VALID,19.4251,VALID,99,VALID,0.180689,
2000-12-21, 00:34:00,VALID,916.708,VALID,0,VALID,99.189,VALID,0.0679233,VALID,19.4318,VALID,96,VALID,0.464021,
2000-12-21, 00:35:00,VALID,916.687,VALID,0,VALID,99.1826,VALID,-0.0169808,VALID,19.4298,VALID,360,VALID,0.320913,
2000-12-21, 00:36:00,VALID,916.721,VALID,0,VALID,99.1712,VALID,0,VALID,19.4141,VALID,289,VALID,0.000205592,
2000-12-21, 00:37:00,VALID,916.729,VALID,0,VALID,99.1457,VALID,-0.0169808,VALID,19.388,VALID,302,VALID,0.400641,
2000-12-21, 00:38:00,VALID,916.729,VALID,0,VALID,99.1546,VALID,-0.0339617,VALID,19.3749,VALID,226,VALID,0.133984,
2000-12-21, 00:39:00,VALID,916.72,VALID,0,VALID,99.1737,VALID,-0.0509425,VALID,19.3915,VALID,95,VALID,0.975507,
2000-12-21, 00:40:00,VALID,916.682,VALID,0,VALID,99.1788,VALID,-0.0509425,VALID,19.4047,VALID,109,VALID,0.747852,
2000-12-21, 00:41:00,VALID,916.653,VALID,0,VALID,99.189,VALID,-0.0679233,VALID,19.4211,VALID,103,VALID,0.641226,
2000-12-21, 00:42:00,VALID,916.642,VALID,0,VALID,99.1864,VALID,-0.0849042,VALID,19.3975,VALID,46,VALID,0.287829,
2000-12-21, 00:43:00,VALID,916.627,VALID,0,VALID,99.161,VALID,-0.0339617,VALID,19.3786,VALID,100,VALID,0.350962,
2000-12-21, 00:44:00,VALID,916.606,VALID,0,VALID,99.1826,VALID,-0.0849042,VALID,19.3784,VALID,138,VALID,0.0264423,
2000-12-21, 00:45:00,VALID,916.613,VALID,0,VALID,99.1737,VALID,-0.0849042,VALID,19.3751,VALID,209,VALID,0.0530849,
2000-12-21, 00:46:00,VALID,916.585,VALID,0,VALID,99.1572,VALID,-0.0339617,VALID,19.3754,VALID,249,VALID,0.0277344,
2000-12-21, 00:47:00,VALID,916.566,VALID,0,VALID,99.1648,VALID,-0.0509425,VALID,19.3689,VALID,135,VALID,0.295819,
2000-12-21, 00:48:00,VALID,916.553,VALID,0,VALID,99.175,VALID,-0.0169808,VALID,19.3657,VALID,98,VALID,0.212695,
2000-12-21, 00:49:00,VALID,916.545,VALID,0,VALID,99.1801,VALID,-0.0339617,VALID,19.3624,VALID,97,VALID,0,
2000-12-21, 00:50:00,VALID,916.537,VALID,0,VALID,99.1788,VALID,0.0339617,VALID,19.3578,VALID,97,VALID,0,
2000-12-21, 00:51:00,VALID,916.521,VALID,0,VALID,99.1775,VALID,0.0849042,VALID,19.3543,VALID,97,VALID,0.192308,
2000-12-21, 00:52:00,VALID,916.511,VALID,0,VALID,99.189,VALID,0.0679233,VALID,19.3575,VALID,100,VALID,0.583059,
2000-12-21, 00:53:00,VALID,916.491,VALID,0,VALID,99.1979,VALID,0.0339617,VALID,19.3714,VALID,103,VALID,0.730769,
2000-12-21, 00:54:00,VALID,916.483,VALID,0,VALID,99.208,VALID,0.0169808,VALID,19.3873,VALID,101,VALID,0.889648,
2000-12-21, 00:55:00,VALID,916.467,VALID,0,VALID,99.2208,VALID,0.0169808,VALID,19.3965,VALID,105,VALID,0.933066,
2000-12-21, 00:56:00,VALID,916.454,VALID,0,VALID,99.222,VALID,0.101885,VALID,19.4025,VALID,86,VALID,1.18711,
2000-12-21, 00:57:00,VALID,916.439,VALID,0,VALID,99.2182,VALID,0.0849042,VALID,19.4002,VALID,104,VALID,0.291667,
2000-12-21, 00:58:00,VALID,916.45,VALID,0,VALID,99.2208,VALID,0.0339617,VALID,19.3868,VALID,106,VALID,0.266447,
2000-12-21, 00:59:00,VALID,916.442,VALID,0,VALID,99.2068,VALID,0.0339617,VALID,19.3871,VALID,96,VALID,0.031851,
2000-12-21, 01:00:00,VALID,916.449,VALID,0,VALID,99.203,VALID,0.0679233,VALID,19.3704,VALID,96,VALID,0,
2000-12-21, 01:01:00,VALID,916.448,VALID,0,VALID,99.1966,VALID,0.0679233,VALID,19.3707,VALID,29,VALID,0.122196,
2000-12-21, 01:02:00,VALID,916.439,VALID,0,VALID,99.1902,VALID,0.0169808,VALID,19.3543,VALID,77,VALID,0.584375,
2000-12-21, 01:03:00,VALID,916.424,VALID,0,VALID,99.1915,VALID,0.0169808,VALID,19.3548,VALID,105,VALID,0.351563,
2000-12-21, 01:04:00,VALID,916.427,VALID,0,VALID,99.1979,VALID,0.0339617,VALID,19.3578,VALID,101,VALID,0.298633,
2000-12-21, 01:05:00,VALID,916.425,VALID,0,VALID,99.1941,VALID,-0.0509425,VALID,19.3659,VALID,100,VALID,0.0801282,
2000-12-21, 01:06:00,VALID,916.412,VALID,0,VALID,99.208,VALID,-0.0849042,VALID,19.3555,VALID,100,VALID,0,
2000-12-21, 01:07:00,VALID,916.401,VALID,0,VALID,99.2004,VALID,-0.0509425,VALID,19.3622,VALID,95,VALID,0.441707,
2000-12-21, 01:08:00,VALID,916.376,VALID,0,VALID,99.2182,VALID,-0.0679233,VALID,19.3659,VALID,63,VALID,0.0382401,
2000-12-21, 01:09:00,VALID,916.36,VALID,0,VALID,99.2233,VALID,-0.0169808,VALID,19.3689,VALID,77,VALID,0,
2000-12-21, 01:10:00,VALID,916.341,VALID,0,VALID,99.2068,VALID,0,VALID,19.3689,VALID,99,VALID,0.000976563,
2000-12-21, 01:11:00,VALID,916.313,VALID,0,VALID,99.1864,VALID,-0.0509425,VALID,19.3463,VALID,119,VALID,0.00105574,
2000-12-21, 01:12:00,VALID,916.294,VALID,0,VALID,99.1775,VALID,-0.0509425,VALID,19.317,VALID,119,VALID,0,
2000-12-21, 01:13:00,VALID,916.305,VALID,0,VALID,99.1737,VALID,-0.0339617,VALID,19.3105,VALID,119,VALID,0.000200321,
2000-12-21, 01:14:00,VALID,916.297,VALID,0,VALID,99.1852,VALID,-0.0169808,VALID,19.3209,VALID,119,VALID,0.263363,
2000-12-21, 01:15:00,VALID,916.294,VALID,0,VALID,99.1699,VALID,-0.0679233,VALID,19.3073,VALID,118,VALID,0.0334535,
2000-12-21, 01:16:00,VALID,916.291,VALID,0,VALID,99.1737,VALID,-0.0339617,VALID,19.311,VALID,117,VALID,0.00925164,
2000-12-21, 01:17:00,VALID,916.297,VALID,0,VALID,99.1737,VALID,-0.0339617,VALID,19.311,VALID,117,VALID,0,
2000-12-21, 01:18:00,VALID,916.295,VALID,0,VALID,99.1813,VALID,-0.0339617,VALID,19.3011,VALID,117,VALID,0.0390625,
2000-12-21, 01:19:00,VALID,916.299,VALID,0,VALID,99.189,VALID,-0.0679233,VALID,19.3177,VALID,117,VALID,0,
2000-12-21, 01:20:00,VALID,916.315,VALID,0,VALID,99.1826,VALID,0,VALID,19.3036,VALID,118,VALID,0,
2000-12-21, 01:21:00,VALID,916.32,VALID,0,VALID,99.1763,VALID,0,VALID,19.2872,VALID,195,VALID,0,
2000-12-21, 01:22:00,VALID,916.284,VALID,0,VALID,99.1928,VALID,0.0169808,VALID,19.2973,VALID,157,VALID,0.0999178,
2000-12-21, 01:23:00,VALID,916.256,VALID,0,VALID,99.1979,VALID,0,VALID,19.2837,VALID,104,VALID,0.136018,
2000-12-21, 01:24:00,VALID,916.25,VALID,0,VALID,99.2017,VALID,0.0169808,VALID,19.3038,VALID,104,VALID,0.00123355,
2000-12-21, 01:25:00,VALID,916.241,VALID,0,VALID,99.2106,VALID,0,VALID,19.3036,VALID,104,VALID,0,
2000-12-21, 01:26:00,VALID,916.234,VALID,0,VALID,99.2182,VALID,0.0339617,VALID,19.3033,VALID,104,VALID,0.0103516,
2000-12-21, 01:27:00,VALID,916.212,VALID,0,VALID,99.2322,VALID,0.0169808,VALID,19.3093,VALID,108,VALID,0.214316,
2000-12-21, 01:28:00,VALID,916.194,VALID,0,VALID,99.2233,VALID,0,VALID,19.3195,VALID,114,VALID,0.23457,
2000-12-21, 01:29:00,VALID,916.184,VALID,0,VALID,99.2208,VALID,0,VALID,19.3297,VALID,114,VALID,0.380208,
2000-12-21, 01:30:00,VALID,916.164,VALID,0,VALID,99.2131,VALID,0,VALID,19.31,VALID,99,VALID,0.533512,
2000-12-21, 01:31:00,VALID,916.146,VALID,0,VALID,99.2106,VALID,0,VALID,19.2998,VALID,94,VALID,0.747196,
2000-12-21, 01:32:00,VALID,916.133,VALID,0,VALID,99.1928,VALID,0.0169808,VALID,19.2745,VALID,93,VALID,0.613076,
2000-12-21, 01:33:00,VALID,916.129,VALID,0,VALID,99.1788,VALID,0.0169808,VALID,19.2482,VALID,92,VALID,0.246995,
2000-12-21, 01:34:00,VALID,916.141,VALID,0,VALID,99.1826,VALID,0.0169808,VALID,19.2457,VALID,92,VALID,0.224219,
2000-12-21, 01:35:00,VALID,916.158,VALID,0,VALID,99.1864,VALID,0.0339617,VALID,19.2322,VALID,101,VALID,0.584459,
2000-12-21, 01:36:00,VALID,916.155,VALID,0,VALID,99.203,VALID,0.0679233,VALID,19.232,VALID,103,VALID,0.777148,
2000-12-21, 01:37:00,VALID,916.159,VALID,0,VALID,99.1953,VALID,0,VALID,19.2285,VALID,102,VALID,0.565905,
2000-12-21, 01:38:00,VALID,916.168,VALID,0,VALID,99.1979,VALID,0.0169808,VALID,19.229,VALID,101,VALID,0.628084,
2000-12-21, 01:39:00,VALID,916.159,VALID,0,VALID,99.2144,VALID,0.0339617,VALID,19.2263,VALID,104,VALID,0.0544872,
2000-12-21, 01:40:00,VALID,916.172,VALID,0,VALID,99.2042,VALID,0.0169808,VALID,19.2193,VALID,104,VALID,0.000205592,
2000-12-21, 01:41:00,VALID,916.163,VALID,0,VALID,99.1966,VALID,0.0509425,VALID,19.2064,VALID,105,VALID,0.015625,
2000-12-21, 01:42:00,VALID,916.163,VALID,0,VALID,99.2042,VALID,0.0169808,VALID,19.2064,VALID,105,VALID,0,
2000-12-21, 01:43:00,VALID,916.171,VALID,0,VALID,99.203,VALID,0,VALID,19.1935,VALID,105,VALID,0,
2000-12-21, 01:44:00,VALID,916.17,VALID,0,VALID,99.2093,VALID,0.0339617,VALID,19.19,VALID,105,VALID,0,
2000-12-21, 01:45:00,VALID,916.17,VALID,0,VALID,99.2106,VALID,0,VALID,19.19,VALID,105,VALID,0,
2000-12-21, 01:46:00,VALID,916.184,VALID,0,VALID,99.2131,VALID,0.0339617,VALID,19.1902,VALID,105,VALID,0,
2000-12-21, 01:47:00,VALID,916.179,VALID,0,VALID,99.222,VALID,0.0169808,VALID,19.1967,VALID,105,VALID,0,
2000-12-21, 01:48:00,VALID,916.171,VALID,0,VALID,99.2246,VALID,0.0169808,VALID,19.2096,VALID,107,VALID,0,
2000-12-21, 01:49:00,VALID,916.169,VALID,0,VALID,99.2195,VALID,0.0169808,VALID,19.2099,VALID,107,VALID,0,
2000-12-21, 01:50:00,VALID,916.178,VALID,0,VALID,99.2233,VALID,0,VALID,19.2131,VALID,109,VALID,0,
2000-12-21, 01:51:00,VALID,916.172,VALID,0,VALID,99.2246,VALID,0.0169808,VALID,19.2039,VALID,112,VALID,0,
2000-12-21, 01:52:00,VALID,916.165,VALID,0,VALID,99.2246,VALID,0,VALID,19.2074,VALID,112,VALID,0,
2000-12-21, 01:53:00,VALID,916.16,VALID,0,VALID,99.2182,VALID,0,VALID,19.2069,VALID,112,VALID,0,
2000-12-21, 01:54:00,VALID,916.16,VALID,0,VALID,99.2284,VALID,0.0169808,VALID,19.1873,VALID,112,VALID,0,
2000-12-21, 01:55:00,VALID,916.159,VALID,0,VALID,99.2182,VALID,0,VALID,19.1808,VALID,112,VALID,0,
2000-12-21, 01:56:00,VALID,916.13,VALID,0,VALID,99.2208,VALID,0,VALID,19.1741,VALID,112,VALID,0,
2000-12-21, 01:57:00,VALID,916.122,VALID,0,VALID,99.2119,VALID,0,VALID,19.1681,VALID,112,VALID,0,
2000-12-21, 01:58:00,VALID,916.105,VALID,0,VALID,99.2271,VALID,-0.0169808,VALID,19.1619,VALID,112,VALID,0,
2000-12-21, 01:59:00,VALID,916.092,VALID,0,VALID,99.2144,VALID,-0.0339617,VALID,19.1554,VALID,110,VALID,0,
2000-12-21, 02:00:00,VALID,916.081,VALID,0,VALID,99.222,VALID,0,VALID,19.1453,VALID,99,VALID,0,
2000-12-21, 02:01:00,VALID,916.082,VALID,0,VALID,99.2157,VALID,0,VALID,19.1323,VALID,105,VALID,0,
2000-12-21, 02:02:00,VALID,916.085,VALID,0,VALID,99.2195,VALID,0.0169808,VALID,19.1328,VALID,102,VALID,0,
2000-12-21, 02:03:00,VALID,916.104,VALID,0,VALID,99.2157,VALID,0.0339617,VALID,19.1197,VALID,105,VALID,0.0408654,
2000-12-21, 02:04:00,VALID,916.094,VALID,0,VALID,99.2195,VALID,0,VALID,19.1067,VALID,97,VALID,0.943051,
2000-12-21, 02:05:00,VALID,916.078,VALID,0,VALID,99.2208,VALID,0,VALID,19.107,VALID,100,VALID,0.794872,
2000-12-21, 02:06:00,VALID,916.076,VALID,0,VALID,99.2322,VALID,0.0169808,VALID,19.1097,VALID,91,VALID,0.773242,
2000-12-21, 02:07:00,VALID,916.058,VALID,0,VALID,99.2322,VALID,0,VALID,19.1132,VALID,83,VALID,0.519215,
2000-12-21, 02:08:00,VALID,916.062,VALID,0,VALID,99.2297,VALID,-0.0339617,VALID,19.113,VALID,95,VALID,0.372656,
2000-12-21, 02:09:00,VALID,916.054,VALID,0,VALID,99.2119,VALID,0,VALID,19.1065,VALID,95,VALID,0.0208333,
2000-12-21, 02:10:00,VALID,916.069,VALID,0,VALID,99.1941,VALID,0.0169808,VALID,19.1134,VALID,95,VALID,0,
2000-12-21, 02:11:00,VALID,916.057,VALID,0,VALID,99.2004,VALID,0.0169808,VALID,19.1033,VALID,96,VALID,0.48778,
2000-12-21, 02:12:00,VALID,916.032,VALID,0,VALID,99.2042,VALID,0,VALID,19.1035,VALID,96,VALID,0.86287,
2000-12-21, 02:13:00,VALID,916.008,VALID,0,VALID,99.2004,VALID,0,VALID,19.0936,VALID,92,VALID,0.861979,
2000-12-21, 02:14:00,VALID,915.988,VALID,0,VALID,99.2093,VALID,0,VALID,19.107,VALID,90,VALID,0.236719,
2000-12-21, 02:15:00,VALID,915.99,VALID,0,VALID,99.2157,VALID,0.0169808,VALID,19.0906,VALID,94,VALID,0.285473,
2000-12-21, 02:16:00,VALID,915.971,VALID,0,VALID,99.2258,VALID,0,VALID,19.0869,VALID,97,VALID,0.752148,
2000-12-21, 02:17:00,VALID,915.982,VALID,0,VALID,99.2258,VALID,0,VALID,19.1134,VALID,98,VALID,1.18369,
2000-12-21, 02:18:00,VALID,915.991,VALID,0,VALID,99.2398,VALID,0.0169808,VALID,19.1227,VALID,100,VALID,0.917146,
2000-12-21, 02:19:00,VALID,915.994,VALID,0,VALID,99.2347,VALID,0,VALID,19.1199,VALID,95,VALID,0.610176,
2000-12-21, 02:20:00,VALID,916.001,VALID,0,VALID,99.2335,VALID,0,VALID,19.1229,VALID,97,VALID,0.522821,
2000-12-21, 02:21:00,VALID,916.023,VALID,0,VALID,99.25,VALID,0.0509425,VALID,19.1229,VALID,64,VALID,0.557692,
2000-12-21, 02:22:00,VALID,916.046,VALID,0,VALID,99.2538,VALID,0,VALID,19.1025,VALID,94,VALID,0.574023,
2000-12-21, 02:23:00,VALID,916.041,VALID,0,VALID,99.2576,VALID,0.0509425,VALID,19.1227,VALID,86,VALID,0.944679,
2000-12-21, 02:24:00,VALID,916.037,VALID,0,VALID,99.2589,VALID,0.0169808,VALID,19.1224,VALID,85,VALID,0.763867,
2000-12-21, 02:25:00,VALID,916.027,VALID,0,VALID,99.2513,VALID,0.0169808,VALID,19.1291,VALID,79,VALID,0.336739,
2000-12-21, 02:26:00,VALID,916.028,VALID,0,VALID,99.2487,VALID,0,VALID,19.1393,VALID,63,VALID,0,
2000-12-21, 02:27:00,VALID,916.046,VALID,0,VALID,99.2487,VALID,0,VALID,19.1386,VALID,50,VALID,0,
2000-12-21, 02:28:00,VALID,916.048,VALID,0,VALID,99.2424,VALID,0,VALID,19.1587,VALID,70,VALID,0,
2000-12-21, 02:29:00,VALID,916.051,VALID,0,VALID,99.2437,VALID,0.0169808,VALID,19.1713,VALID,94,VALID,0.273638,
2000-12-21, 02:30:00,VALID,916.056,VALID,0,VALID,99.25,VALID,0,VALID,19.1743,VALID,100,VALID,0.839648,
2000-12-21, 02:31:00,VALID,916.042,VALID,0,VALID,99.2538,VALID,0,VALID,19.1838,VALID,99,VALID,1.27682,
2000-12-21, 02:32:00,VALID,916.026,VALID,0,VALID,99.236,VALID,0,VALID,19.181,VALID,88,VALID,1.3791,
2000-12-21, 02:33:00,VALID,916.025,VALID,0,VALID,99.2258,VALID,0.0169808,VALID,19.1709,VALID,87,VALID,0.986378,
2000-12-21, 02:34:00,VALID,916.042,VALID,0,VALID,99.2144,VALID,0.0339617,VALID,19.1806,VALID,92,VALID,0.367599,
2000-12-21, 02:35:00,VALID,916.051,VALID,0,VALID,99.2093,VALID,-0.0679233,VALID,19.1852,VALID,94,VALID,0.444111,
2000-12-21, 02:36:00,VALID,916.029,VALID,0,VALID,99.2055,VALID,-0.0679233,VALID,19.1984,VALID,90,VALID,0.698396,
2000-12-21, 02:37:00,VALID,916.008,VALID,0,VALID,99.208,VALID,-0.0509425,VALID,19.2011,VALID,90,VALID,0.721154,
2000-12-21, 02:38:00,VALID,915.98,VALID,0,VALID,99.203,VALID,-0.0849042,VALID,19.2046,VALID,103,VALID,0.504102,
2000-12-21, 02:39:00,VALID,915.973,VALID,0,VALID,99.2093,VALID,-0.101885,VALID,19.1947,VALID,91,VALID,0.0783361,
2000-12-21, 02:40:00,VALID,915.932,VALID,0,VALID,99.2042,VALID,-0.0509425,VALID,19.2088,VALID,95,VALID,0.56582,
2000-12-21, 02:41:00,VALID,915.913,VALID,0,VALID,99.2119,VALID,-0.0679233,VALID,19.2049,VALID,96,VALID,0.717348,
2000-12-21, 02:42:00,VALID,915.878,VALID,0,VALID,99.2182,VALID,-0.101885,VALID,19.2215,VALID,102,VALID,1.03104,
2000-12-21, 02:43:00,VALID,915.833,VALID,0,VALID,99.2131,VALID,-0.0849042,VALID,19.2178,VALID,77,VALID,0.605168,
2000-12-21, 02:44:00,VALID,915.821,VALID,0,VALID,99.2182,VALID,-0.0849042,VALID,19.2116,VALID,89,VALID,0.403166,
2000-12-21, 02:45:00,VALID,915.813,VALID,0,VALID,99.2271,VALID,-0.0849042,VALID,19.2049,VALID,92,VALID,0.503606,
2000-12-21, 02:46:00,VALID,915.799,VALID,0,VALID,99.2297,VALID,-0.0679233,VALID,19.2046,VALID,103,VALID,0.673437,
2000-12-21, 02:47:00,VALID,915.796,VALID,0,VALID,99.2398,VALID,-0.118866,VALID,19.2247,VALID,98,VALID,0.543919,
2000-12-21, 02:48:00,VALID,915.799,VALID,0,VALID,99.2411,VALID,-0.0849042,VALID,19.2344,VALID,100,VALID,0.21543,
2000-12-21, 02:49:00,VALID,915.796,VALID,0,VALID,99.2411,VALID,-0.135847,VALID,19.2342,VALID,100,VALID,0.000200321,
2000-12-21, 02:50:00,VALID,915.778,VALID,0,VALID,99.2487,VALID,0,VALID,19.2362,VALID,98,VALID,0.724095,
2000-12-21, 02:51:00,VALID,915.779,VALID,0,VALID,99.2525,VALID,0,VALID,19.2491,VALID,98,VALID,0.959736,
2000-12-21, 02:52:00,VALID,915.76,VALID,0,VALID,99.2576,VALID,0.0169808,VALID,19.2288,VALID,101,VALID,0.884046,
2000-12-21, 02:53:00,VALID,915.729,VALID,0,VALID,99.2551,VALID,0.0169808,VALID,19.226,VALID,96,VALID,0.951723,
2000-12-21, 02:54:00,VALID,915.72,VALID,0,VALID,99.2538,VALID,0.0509425,VALID,19.2357,VALID,99,VALID,0.897461,
2000-12-21, 02:55:00,VALID,915.709,VALID,0,VALID,99.2525,VALID,0.0169808,VALID,19.2226,VALID,101,VALID,0.726563,
2000-12-21, 02:56:00,VALID,915.69,VALID,0,VALID,99.2551,VALID,0.0169808,VALID,19.233,VALID,101,VALID,0.850977,
2000-12-21, 02:57:00,VALID,915.674,VALID,0,VALID,99.2665,VALID,-0.0169808,VALID,19.226,VALID,98,VALID,0.571314,
2000-12-21, 02:58:00,VALID,915.669,VALID,0,VALID,99.2615,VALID,0,VALID,19.2327,VALID,100,VALID,1.06949,
2000-12-21, 02:59:00,VALID,915.662,VALID,0,VALID,99.2538,VALID,0,VALID,19.223,VALID,95,VALID,1.22636,
2000-12-21, 03:00:00,VALID,915.663,VALID,0,VALID,99.2386,VALID,0.0169808,VALID,19.1902,VALID,92,VALID,1.08388,
2000-12-21, 03:01:00,VALID,915.666,VALID,0,VALID,99.2309,VALID,0.0169808,VALID,19.1806,VALID,98,VALID,0.961338,
2000-12-21, 03:02:00,VALID,915.688,VALID,0,VALID,99.2398,VALID,0.0509425,VALID,19.1711,VALID,101,VALID,0.881445,
2000-12-21, 03:03:00,VALID,915.707,VALID,0,VALID,99.2271,VALID,0.0169808,VALID,19.1907,VALID,64,VALID,0.490709,
2000-12-21, 03:04:00,VALID,915.716,VALID,0,VALID,99.2297,VALID,0,VALID,19.1684,VALID,59,VALID,0.365625,
2000-12-21, 03:05:00,VALID,915.732,VALID,0,VALID,99.2106,VALID,-0.0849042,VALID,19.1562,VALID,71,VALID,0.480769,
2000-12-21, 03:06:00,VALID,915.733,VALID,0,VALID,99.2093,VALID,-0.0849042,VALID,19.146,VALID,50,VALID,0.103207,
2000-12-21, 03:07:00,VALID,915.736,VALID,0,VALID,99.1928,VALID,-0.101885,VALID,19.1405,VALID,53,VALID,0.670072,
2000-12-21, 03:08:00,VALID,915.735,VALID,0,VALID,99.2182,VALID,-0.0849042,VALID,19.1534,VALID,74,VALID,0.32977,
2000-12-21, 03:09:00,VALID,915.734,VALID,0,VALID,99.2119,VALID,-0.101885,VALID,19.1534,VALID,75,VALID,0.46254,
2000-12-21, 03:10:00,VALID,915.71,VALID,0,VALID,99.2187,VALID,-0.0849042,VALID,19.1631,VALID,102,VALID,0.0596217,
2000-12-21, 03:11:00,VALID,915.71,VALID,0,VALID,99.2119,VALID,-0.0679233,VALID,19.1693,VALID,102,VALID,0,
2000-12-21, 03:12:00,VALID,915.693,VALID,0,VALID,99.2195,VALID,-0.0679233,VALID,19.1624,VALID,105,VALID,0.58457,
2000-12-21, 03:13:00,VALID,915.683,VALID,0,VALID,99.2335,VALID,-0.101885,VALID,19.1822,VALID,98,VALID,0.71895,
2000-12-21, 03:14:00,VALID,915.687,VALID,0,VALID,99.2475,VALID,-0.101885,VALID,19.1984,VALID,79,VALID,0.216283,
2000-12-21, 03:15:00,VALID,915.694,VALID,0,VALID,99.2157,VALID,-0.118866,VALID,19.18,VALID,76,VALID,0.375,
2000-12-21, 03:16:00,VALID,915.683,VALID,0,VALID,99.2144,VALID,-0.101885,VALID,19.1666,VALID,85,VALID,0.906661,
2000-12-21, 03:17:00,VALID,915.668,VALID,0,VALID,99.2157,VALID,-0.118866,VALID,19.1499,VALID,98,VALID,0.524239,
2000-12-21, 03:18:00,VALID,915.677,VALID,0,VALID,99.1915,VALID,-0.101885,VALID,19.1407,VALID,93,VALID,0.0363281,
2000-12-21, 03:19:00,VALID,915.662,VALID,0,VALID,99.1775,VALID,-0.118866,VALID,19.1338,VALID,10,VALID,0.104519,
2000-12-21, 03:20:00,VALID,915.668,VALID,0,VALID,99.2004,VALID,0.0169808,VALID,19.1197,VALID,127,VALID,0.212305,
2000-12-21, 03:21:00,VALID,915.654,VALID,0,VALID,99.1813,VALID,-0.0169808,VALID,19.143,VALID,84,VALID,0.179287,
2000-12-21, 03:22:00,VALID,915.621,VALID,0,VALID,99.1597,VALID,0,VALID,19.1164,VALID,102,VALID,0.590666,
2000-12-21, 03:23:00,VALID,915.615,VALID,0,VALID,99.1457,VALID,0.0339617,VALID,19.1197,VALID,155,VALID,0.0823317,
2000-12-21, 03:24:00,VALID,915.598,VALID,0,VALID,99.1038,VALID,0,VALID,19.1102,VALID,146,VALID,0.238898,
2000-12-21, 03:25:00,VALID,915.583,VALID,0,VALID,99.1101,VALID,0,VALID,19.1167,VALID,133,VALID,0.144631,
2000-12-21, 03:26:00,VALID,915.594,VALID,0,VALID,99.1038,VALID,-0.0169808,VALID,19.1363,VALID,100,VALID,0.0548828,
2000-12-21, 03:27:00,VALID,915.564,VALID,0,VALID,99.0758,VALID,0,VALID,19.1164,VALID,99,VALID,1.12373,
2000-12-21, 03:28:00,VALID,915.552,VALID,0,VALID,99.0466,VALID,0,VALID,19.1162,VALID,62,VALID,0.811719,
2000-12-21, 03:29:00,VALID,915.537,VALID,0,VALID,98.9906,VALID,-0.0169808,VALID,19.1134,VALID,96,VALID,0.586138,
2000-12-21, 03:30:00,VALID,915.524,VALID,0,VALID,98.9385,VALID,-0.0169808,VALID,19.1037,VALID,67,VALID,0.158923,
2000-12-21, 03:31:00,VALID,915.525,VALID,0,VALID,98.9219,VALID,-0.0339617,VALID,19.1037,VALID,151,VALID,0.0963542,
2000-12-21, 03:32:00,VALID,915.519,VALID,0,VALID,98.9041,VALID,0,VALID,19.1137,VALID,118,VALID,0.159539,
2000-12-21, 03:33:00,VALID,915.51,VALID,0,VALID,98.8329,VALID,0,VALID,19.0876,VALID,72,VALID,0.286859,
2000-12-21, 03:34:00,VALID,915.512,VALID,0,VALID,98.8113,VALID,0,VALID,19.11,VALID,103,VALID,0.00195313,
2000-12-21, 03:35:00,VALID,915.492,VALID,0,VALID,98.7833,VALID,0.0169808,VALID,19.1231,VALID,120,VALID,0.146537,